Location: East Guldeford
(50.9500°N, 0.7500°E)
Time: 09:49:30
(UTC+00:00)

Cosmos 2154 Rocket - Pass Details

Date: 12 May 2021
Orbit: 965 x 997 km, 82.9° (Epoch: 16 June)

Event Time Altitude Azimuth Distance (km) Brightness Sun altitude
Rises 21:23:25 0° 350° (N) 3,724 8.3 -13.3°
Reaches altitude 10° 21:25:59 10° 353° (N) 2,767 7.4 -13.5°
Maximum altitude 21:32:20 73° 78° (ENE) 1,036 4.1 -14.1°
Enters shadow 21:36:55 20° 161° (SSE) 2,122 5.2 -14.5°
